Weather History for Everett, WA

Change the Weather History Date:

Friday, October 14, 2011

  Actual Average Record
Temperature  
Mean Temperature 50 °F -  
Max Temperature 54 °F 59 °F 71 °F (2005)
Min Temperature 46 °F 42 °F 28 °F (1969)
Degree Days  
Heating Degree Days 15    
Moisture  
Dew Point 45 °F    
Average Humidity 84    
Maximum Humidity 93    
Minimum Humidity 69    
Precipitation  
Precipitation 0.00 in - - ()
Sea Level Pressure  
Sea Level Pressure 30.03 in    
Wind  
Wind Speed 5 mph (North)    
Max Wind Speed 7 mph    
Max Gust Speed -    
Visibility 9 miles    
Events      
Averages and records for this station are not official NWS values.
T = Trace of Precipitation, MM = Missing Value Source: NWS Daily Summary

Daily Weather History Graph

Daily Weather History Graph

Search for Another Location

Airport:

Trip Planner

Search our weather history database for the weather conditions in past years. The results will help you decide how hot, cold, wet, or windy it might be!

Date:

Astronomy

Oct. 14, 2011 Rise Set
Actual Time 7:26 AM PDT 6:22 PM PDT
Civil Twilight 6:55 AM PDT 6:54 PM PDT
Nautical Twilight 6:19 AM PDT 7:29 PM PDT
Astronomical Twilight 5:43 AM PDT 8:05 PM PDT
Moon 7:23 PM PDT (10/14) 10:16 AM PDT (10/14)
Length of Visible Light 11h 58m
Length of Day
10h 56m
Waning Gibbous, 94% of the Moon is Illuminated
Oct 14
Waning Gibbous
Oct 19
Last Quarter
Oct 26
New
Nov 2
First Quarter
Nov 10
Full

Hourly Weather History & Observations

Time (PDT) Temp. Dew Point Humidity Pressure Visibility Wind Dir Wind Speed Gust Speed Precip Events Conditions
12:08 AM 48.2 °F 44.6 °F 87% 30.06 in 10.0 mi NNW 5.8 mph - N/A   Mostly Cloudy
12:53 AM 48.9 °F 45.0 °F 86% 30.06 in 10.0 mi North 6.9 mph - N/A   Overcast
1:53 AM 48.9 °F 45.0 °F 86% 30.04 in 10.0 mi North 4.6 mph - N/A   Overcast
2:53 AM 48.9 °F 46.0 °F 90% 30.04 in 10.0 mi North 3.5 mph - N/A   Overcast
3:06 AM 48.2 °F 46.4 °F 93% 30.03 in 10.0 mi North 4.6 mph - N/A   Overcast
3:53 AM 48.9 °F 46.0 °F 90% 30.03 in 9.0 mi North 4.6 mph - N/A   Overcast
4:53 AM 48.9 °F 46.0 °F 90% 30.03 in 10.0 mi NNW 3.5 mph - N/A   Overcast
5:53 AM 48.2 °F 44.6 °F 87% 30.02 in 8.0 mi Variable 3.5 mph - N/A   Overcast
6:53 AM 48.9 °F 46.0 °F 90% 30.03 in 7.0 mi North 4.6 mph - N/A   Overcast
7:53 AM 48.0 °F 45.0 °F 89% 30.04 in 8.0 mi North 4.6 mph - N/A   Overcast
8:15 AM 48.2 °F 44.6 °F 87% 30.02 in 10.0 mi North 4.6 mph - N/A   Overcast
8:43 AM 48.2 °F 44.6 °F 87% 30.03 in 7.0 mi North 4.6 mph - N/A   Overcast
8:53 AM 48.2 °F 44.6 °F 87% 30.03 in 5.0 mi Variable 3.5 mph - N/A   Overcast
9:25 AM 48.2 °F 44.6 °F 87% 30.03 in 7.0 mi North 4.6 mph - N/A   Overcast
9:53 AM 48.9 °F 44.1 °F 83% 30.04 in 10.0 mi North 4.6 mph - N/A   Overcast
10:53 AM 48.9 °F 44.1 °F 83% 30.04 in 10.0 mi North 4.6 mph - N/A   Overcast
11:53 AM 51.8 °F 44.6 °F 76% 30.03 in 10.0 mi NNE 4.6 mph - N/A   Partly Cloudy
12:53 PM 52.0 °F 44.1 °F 74% 30.03 in 10.0 mi Variable 3.5 mph - N/A   Clear
1:53 PM 53.1 °F 44.1 °F 71% 30.01 in 10.0 mi Variable 3.5 mph - N/A   Scattered Clouds
2:53 PM 53.1 °F 43.0 °F 69% 30.01 in 10.0 mi Variable 3.5 mph - N/A   Mostly Cloudy
3:53 PM 54.0 °F 44.1 °F 69% 30.01 in 10.0 mi North 4.6 mph - N/A   Clear
4:53 PM 53.1 °F 44.1 °F 71% 30.01 in 10.0 mi North 3.5 mph - N/A   Clear
5:53 PM 51.1 °F 44.1 °F 77% 30.00 in 10.0 mi North 4.6 mph - N/A   Clear
6:53 PM 50.0 °F 45.0 °F 83% 30.00 in 10.0 mi North 4.6 mph - N/A   Clear
7:53 PM 48.9 °F 45.0 °F 86% 30.00 in 10.0 mi North 3.5 mph - N/A   Clear
8:53 PM 48.0 °F 45.0 °F 89% 30.01 in 10.0 mi Calm Calm - N/A   Clear
9:53 PM 48.2 °F 44.6 °F 87% 30.01 in 10.0 mi NNW 3.5 mph - N/A   Clear
10:53 PM 46.9 °F 44.1 °F 90% 30.02 in 10.0 mi NNW 3.5 mph - N/A   Clear
11:53 PM 46.0 °F 43.0 °F 89% 30.03 in 10.0 mi Calm Calm - N/A   Clear